Volver al catálogo

SL-8 DEB

ActivoPO
NORAD 24752·DEBRIS·🇷🇺 Russia

Lanzado Jan 29, 1991 desde Plesetsk Cosmodrome

Loading…

Próximos Pases (próximas 24 horas)

TLE

ActualizadoSource: Space-Track

Época: Sep 14, 2026, 04:28 UTC

1 24752U 91006C   26257.18654381  .00000231  00000-0  19873-3 0  9991
2 24752  82.9106 333.4703 0024556 110.0868 279.0284 13.82345533563774

Sigue SL-8 DEB en tiempo real con AllMySat

Download on the App Store